Location: McMath-Hulbert Observatory
(42.6964°N, 83.3187°W)
Time: 00:51:22
(UTC-04:00)

Daily predictions for brighter satellites

Satellite Brightness Start Highest point End
(mag) Time Altitude Azimuth Time Altitude Azimuth Time Altitude Azimuth
Okean 1 4.4 00:00:43 10° N 00:03:54 35° ENE 00:03:54 35° ENE
Sich 1 Rocket 3.6 00:06:00 66° SW 00:06:25 72° W 00:10:52 10° N
Cosmos 494 Rocket 4.1 00:02:46 10° NNW 00:07:57 65° WSW 00:08:45 56° SSW
Meteor 1-18 Rocket 4.2 00:02:19 10° N 00:08:02 72° ENE 00:09:08 57° SE
Cosmos 1782 Rocket 3.5 00:09:07 75° ENE 00:09:07 75° ENE 00:13:20 10° NNE
Lacrosse 5 rocket 3.6 00:10:17 10° W 00:13:10 22° NNW 00:16:08 10° NNE
CZ-4 R/B 3.9 00:09:56 10° N 00:14:34 71° WNW 00:15:12 61° SW
Spot 4 3.8 00:14:20 65° SW 00:14:48 71° WSW 00:19:39 10° NNW
Cosmos 1943 Rocket 4.0 00:10:23 10° WSW 00:15:07 28° NW 00:19:51 10° N
Cosmos 405 Rocket 3.3 00:15:00 10° N 00:17:52 51° N 00:17:52 51° N
Cosmos 1633 4.2 00:25:24 29° NNE 00:25:24 29° NNE 00:27:23 10° NNE
APEX 4.5 00:19:52 10° NNW 00:24:04 36° NE 00:24:04 36° NE
CZ-4B R/B 3.4 00:21:24 10° N 00:26:23 74° WNW 00:26:59 64° SW
Cosmos 2026 Rocket 4.1 00:25:32 46° SSW 00:27:23 72° W 00:33:38 10° N
ALOS 2 3.6 00:28:20 37° ENE 00:28:20 37° ENE 00:32:10 10° N
Cosmos 1975 Rocket 3.3 00:26:24 10° NNW 00:30:38 66° WNW 00:30:38 66° WNW
Cosmos 2151 Rocket 4.3 00:40:41 46° NE 00:40:41 46° NE 00:44:11 10° NNE
S3M 3.8 00:39:14 10° N 00:45:23 85° W 00:46:18 66° S
Cosmos 1441 Rocket 4.3 00:43:22 10° NNW 00:46:10 44° NNW 00:46:10 44° NNW
Cosmos 2251 Rocket 4.5 00:42:33 10° NW 00:47:16 35° W 00:47:31 34° WSW
Cosmos 2297 Rocket 2.7 00:41:49 10° NNW 00:47:20 50° ENE 00:48:16 45° E
Cosmos 1697 Rocket 4.2 00:49:13 23° E 00:49:13 23° E 00:52:35 10° NE
Lacrosse 4 Rocket 4.1 00:51:23 10° W 00:52:03 11° W 00:52:03 11° W
Cosmos 1536 Rocket 4.1 00:50:04 10° N 00:53:43 55° NNE 00:53:43 55° NNE
H-2A R/B 4.2 00:57:24 16° W 00:57:24 16° W 00:59:44 10° NW
ATLAS 5 CENTAUR R/B 4.2 00:55:01 10° WNW 00:58:57 18° WSW 00:59:24 17° WSW
GP-B 4.1 00:55:09 10° NNE 00:58:32 37° ENE 00:58:32 37° ENE
Cosmos 1553 Rocket 4.3 00:58:41 10° NNW 01:04:55 57° W 01:05:58 50° SW
ATLAS CENTAUR R/B 2.5 01:05:54 38° NW 01:05:54 38° NW 01:09:08 10° NNE
Cosmos 1371 Rocket 4.2 01:07:59 59° ENE 01:07:59 59° ENE 01:12:36 10° NNE
Cosmos 2082 3.6 01:04:30 10° NNW 01:10:16 77° ENE 01:10:39 73° ESE
Cosmos 2278 3.6 01:12:16 73° ESE 01:12:16 73° ESE 01:17:52 10° NNE
ISS -0.8 01:11:10 10° NW 01:13:26 17° N 01:15:43 10° NE
Meteor 1-13 Rocket 4.2 01:08:14 10° NNW 01:14:00 78° W 01:14:20 75° SW
Meteor 1-19 Rocket 4.2 01:08:43 10° NNW 01:14:34 78° W 01:14:56 75° SW
Cosmos 1190 Rocket 4.4 01:10:07 10° N 01:15:13 52° ENE 01:15:26 52° ENE
CZ-2C R/B 3.7 01:25:43 42° W 01:25:43 42° W 01:30:11 10° NNW
Mayak -0.4 01:23:41 10° NNE 01:26:48 49° NNE 01:26:48 49° NNE
Cosmos 1536 3.9 01:30:56 44° N 01:30:56 44° N 01:33:47 10° N
Cosmos 1624 Rocket 4.0 01:32:23 81° NE 01:32:23 81° NE 01:37:31 10° NNE
Cosmos 2227 Rocket 2.5 01:30:54 10° NNW 01:36:06 54° W 01:36:06 54° W
Meteor 1-11 Rocket 4.0 01:36:32 59° WSW 01:37:11 64° WNW 01:43:07 10° N
Cosmos 2266 Rocket 4.2 01:37:32 52° WSW 01:38:28 58° W 01:44:32 10° N
Cosmos 407 Rocket 3.5 01:33:35 10° NNW 01:38:54 76° ENE 01:38:54 76° ENE
USA 229 DEB 3.6 01:38:23 64° SSE 01:38:57 67° ESE 01:45:51 10° NE
USA 229 3.6 01:38:31 64° SSE 01:39:04 67° ESE 01:45:57 10° NE
Okean 1 Rocket 3.7 01:41:29 54° N 01:41:29 54° N 01:44:51 10° N
CZ-2C R/B 3.5 01:36:36 10° N 01:41:21 38° WNW 01:42:04 36° W
Cosmos 2315 Rocket 3.8 01:35:30 10° N 01:41:43 80° W 01:42:16 73° SSW
Okean 1-7 Rocket 4.2 01:37:52 10° N 01:41:23 53° NNE 01:41:23 53° NNE
Meteor 1-23 Rocket 4.1 01:38:04 10° N 01:43:47 85° W 01:43:52 84° WSW
Cosmos 1140 Rocket 4.4 01:40:04 10° N 01:44:56 40° ENE 01:45:43 37° E
Cosmos 1656 3.7 01:53:47 67° W 01:54:02 68° WNW 01:59:34 10° NNE
Meteor 2-4 Rocket 4.1 01:50:27 10° NNW 01:55:18 47° W 01:55:18 47° W
Cosmos 2369 4.2 01:55:16 47° W 01:56:11 52° WNW 02:01:47 10° NNE
Meteor 1-5 Rocket 4.2 01:59:38 67° W 01:59:55 69° WNW 02:05:29 10° N
CZ-4C R/B 3.2 01:55:07 10° NNW 02:02:10 63° NE 02:06:47 26° ESE
Cosmos 2056 Rocket 3.8 02:02:35 55° WNW 02:02:39 55° WNW 02:07:41 10° NNE
CZ-4B R/B 3.3 02:04:25 31° N 02:04:25 31° N 02:06:21 10° N
Cosmos 1980 Rocket 2.3 02:03:42 59° ESE 02:03:42 59° ESE 02:09:07 10° NNE
Cosmos 1954 Rocket 4.0 02:01:54 10° NNW 02:07:11 74° ENE 02:07:16 74° E
Cosmos 1238 Rocket 3.6 02:03:53 10° N 02:09:02 80° E 02:09:20 77° SE
Cosmos 1025 Rocket 4.0 02:10:52 10° NNW 02:13:59 40° NW 02:13:59 40° NW
Cosmos 1500 4.4 02:19:20 40° NNE 02:19:20 40° NNE 02:21:54 10° N
Cosmos 1975 3.7 02:23:32 49° NNE 02:23:32 49° NNE 02:26:38 10° NNE
Cosmos 1452 Rocket 3.4 02:28:49 79° W 02:28:55 79° WNW 02:34:14 10° NNE
NOSS 3-1 (C) 3.3 02:29:04 65° SE 02:29:29 67° ESE 02:35:52 10° NE
H-2A R/B 3.1 02:25:28 10° NNE 02:28:35 51° NNE 02:28:35 51° NNE
Cosmos 2297 Rocket 3.7 02:26:33 10° NW 02:30:03 23° W 02:30:03 23° W
USA 81 4.4 02:26:08 10° N 02:31:20 55° E 02:32:00 51° ESE
Cosmos 1697 Rocket 3.1 02:30:56 46° W 02:31:48 50° WNW 02:37:16 10° NNE
Cosmos 1850 Rocket 4.2 02:34:29 10° NNW 02:39:50 69° ENE 02:40:44 57° ESE
Nadezhda 1 Rocket 3.8 02:34:22 10° N 02:40:30 84° W 02:41:30 65° S
Cosmos 1892 Rocket 4.1 02:36:11 10° NNW 02:39:53 52° NW 02:39:53 52° NW
Cosmos 921 Rocket 4.5 02:41:32 28° WNW 02:41:32 28° WNW 02:45:00 10° N
Cosmos 1709 Rocket 4.3 02:42:48 44° SE 02:44:17 54° E 02:50:13 10° NNE
SL-16 R/B 2.7 02:44:16 43° SE 02:44:55 44° ESE 02:50:17 10° NE
Helios 1A Rocket 3.8 02:43:42 10° NNE 02:47:07 43° ENE 02:47:07 43° ENE
BREEZE M DEB (TANK) 3.4 02:48:29 66° SW 02:49:14 83° SSE 02:52:26 10° ENE
ISS -1.2 02:48:07 10° NW 02:50:45 22° NNE 02:53:23 10° ENE
Cosmos 614 Rocket 4.0 02:48:07 10° NNW 02:52:46 59° W 02:52:46 59° W
Cosmos 2322 Rocket 2.5 02:53:12 49° SE 02:54:00 54° ESE 02:59:34 10° NNE
Meteor 1-12 Rocket 4.3 02:56:32 58° WSW 02:57:23 67° W 03:03:08 10° N
Cosmos 2360 4.4 02:56:58 53° WSW 02:57:57 62° WNW 03:03:39 10° NNE
Cosmos 1420 Rocket 4.1 02:58:32 59° W 02:59:00 63° WNW 03:04:10 10° NNE
SL-16 R/B 3.7 02:55:29 13° SE 03:00:36 39° ENE 03:06:20 10° N
Cosmos 1626 Rocket 3.5 02:57:21 10° N 03:01:42 78° ENE 03:01:42 78° ENE
Cosmos 1386 Rocket 4.4 03:01:17 55° SW 03:02:22 66° W 03:08:24 10° N
USA 234 3.1 02:59:39 10° NE 03:06:14 85° SE 03:08:23 47° SW
Cosmos 1666 3.1 03:07:17 62° N 03:07:17 62° N 03:10:33 10° N
Cosmos 839 Rocket 4.3 03:08:22 41° WSW 03:10:22 58° NW 03:16:30 10° NNE
Cosmos 2227 4.3 03:06:31 10° NW 03:11:57 51° WSW 03:12:03 51° WSW
Resurs 1-4 Rocket 3.3 03:13:32 10° NNE 03:18:19 34° E 03:20:23 25° SE
Cosmos 2181 Rocket 4.0 03:13:02 10° N 03:19:28 85° E 03:22:06 39° S
Cosmos 1461 3.4 03:15:45 10° NW 03:19:14 51° WNW 03:19:14 51° WNW
Cosmos 1741 Rocket 4.1 03:17:15 10° NNW 03:22:19 52° WSW 03:22:27 52° WSW
ARIANE 5 R/B 3.8 03:19:47 10° NNE 03:24:24 33° E 03:26:38 23° SE
BREEZE-M DEB (TANK) 3.7 03:19:31 10° W 03:26:59 43° NNW 03:29:50 10° NE
ADEOS Rocket 2.9 03:23:09 10° NNE 03:29:31 82° ESE 03:31:34 43° S
Cosmos 1455 Rocket 4.4 03:29:38 27° WNW 03:29:38 27° WNW 03:33:18 10° NNW
ATLAS 2AS CENTAUR R/B 4.1 03:26:53 22° SSE 03:30:50 34° ESE 03:37:51 10° NE
BREEZE M DEB (TANK) 3.7 03:32:31 29° ENE 03:32:31 29° ENE 03:34:31 10° E
SL-08 ROCKET BODY 4.5 03:31:22 38° S 03:33:50 76° E 03:39:55 10° N
Lacrosse 5 rocket 4.5 03:32:26 10° NNW 03:34:23 13° NNE 03:36:22 10° NE
NPP 3.6 03:29:21 10° NNE 03:34:45 84° WNW 03:36:18 49° SSW
NOSS 3-1 (A) 3.6 03:33:28 39° WSW 03:35:39 63° NW 03:42:11 10° NNE
Cosmos 1842 3.3 03:31:50 10° NNW 03:35:25 64° WNW 03:35:25 64° WNW
Cosmos 1331 Rocket 3.9 03:36:02 50° S 03:37:22 77° ESE 03:42:33 10° NNE
SL-08 R/B 3.1 03:37:31 59° SSW 03:38:15 72° WSW 03:42:53 10° NNW
CZ-2D R/B 2.7 03:32:57 10° NNE 03:38:20 52° E 03:40:47 30° SSE
COBE Rocket 4.0 03:33:59 10° N 03:39:10 78° WNW 03:40:35 49° SSW
Cosmos 2263 Rocket 2.1 03:33:46 10° NNW 03:39:30 84° WSW 03:42:29 29° SSE
Cosmos 220 Rocket 3.8 03:37:12 10° NNW 03:41:27 85° WSW 03:42:06 63° S
Cosmos 1743 4.3 03:43:11 23° WNW 03:43:11 23° WNW 03:46:01 10° NNW
IRS-P3 4.2 03:38:27 10° N 03:43:46 66° WNW 03:45:21 44° SW
Cosmos 2360 Rocket 2.5 03:44:09 34° S 03:46:23 57° ESE 03:51:56 10° NNE
Cosmos 1980 Rocket 3.8 03:45:28 17° W 03:48:00 23° NW 03:52:26 10° N
CBERS-1 4.0 03:42:53 10° N 03:48:00 68° WNW 03:49:31 44° SW
Cosmos 44 3.4 03:44:15 10° NNW 03:48:36 64° NE 03:53:03 10° SE
COSMOS 2428 4.3 03:45:35 15° SSE 03:49:06 27° ESE 03:53:50 10° NE
DELTA 2 R/B (1) 4.2 03:49:16 36° S 03:49:58 37° SSE 03:55:03 10° E
CZ-4C R/B 3.6 03:44:09 10° NW 03:50:34 33° WSW 03:51:52 32° SW
Cosmos 2219 Rocket 4.5 03:47:56 10° SE 03:51:20 16° E 03:54:44 10° ENE
Cosmos 2074 Rocket 4.0 03:49:38 31° S 03:52:54 81° E 03:59:14 10° N
OAO 3 Rocket 4.3 03:54:41 27° SSE 03:54:41 27° SSE 03:58:13 10° ESE
Cosmos 1486 Rocket 4.3 03:50:51 10° NNW 03:56:10 67° ENE 04:01:23 10° SSE
AQUA 4.0 03:52:37 10° N 03:57:19 60° WNW 03:58:41 42° SW
Cosmos 2058 Rocket 3.9 03:56:09 26° SSE 03:58:23 48° E 04:02:44 10° NNE
Cosmos 1953 Rocket 3.7 03:54:59 10° N 03:59:28 75° E 04:01:44 29° SSE
Cosmos 1844 Rocket 4.4 03:54:49 10° N 03:59:57 34° NE 04:05:05 10° ESE
Cosmos 1437 Rocket 4.1 04:02:41 26° W 04:03:03 27° WNW 04:06:35 10° NNW
ATLAS 3B R/B 4.0 03:56:47 10° NNW 04:03:08 40° NE 04:09:13 10° ESE
CBERS 1 LM4 rocket 4.3 03:58:44 10° NNE 04:03:31 80° ESE 04:05:37 34° S
Uosat 12 SS-18 rocket 4.4 04:02:03 40° SSW 04:03:47 77° ESE 04:09:27 10° NE
Centaur D AC-29 3.5 04:03:54 14° SSE 04:04:08 14° SSE 04:07:45 10° SE
MOZ.5/SAFIR/RUBIN 5/SL-8 4.5 04:01:10 10° SSE 04:05:37 52° ENE 04:10:08 10° N
MOS 1 Rocket 3.6 04:01:19 10° NNE 04:05:49 57° E 04:07:59 27° SSE
Meteor 2-5 Rocket 4.3 04:02:31 10° N 04:08:06 58° ENE 04:13:44 10° SSE
Cosmos 2333 Rocket 4.4 04:04:35 10° SE 04:08:21 18° E 04:12:08 10° ENE
BREEZE M DEB (TANK) 3.7 04:07:50 16° NW 04:09:06 24° N 04:12:09 10° ENE
Cosmos 2322 3.8 04:06:52 30° S 04:09:42 73° ESE 04:15:22 10° NNE
Cosmos 2154 Rocket 4.4 04:07:32 16° SSE 04:12:34 60° E 04:18:44 10° NNE
Meteor 1-15 Rocket 4.3 04:12:02 32° SSW 04:14:36 62° WNW 04:20:16 10° N
SL-8 R/B 3.8 04:14:20 36° SSW 04:16:07 62° SSE 04:20:54 10° ENE
NOSS 2-3 (C) 3.9 04:14:04 34° SSW 04:16:10 76° ESE 04:21:39 10° NE
Cosmos 1610 Rocket 4.5 04:12:36 22° S 04:16:41 83° E 04:22:51 10° N
Iridium 4 Rocket 3.7 04:18:26 23° S 04:22:11 79° W 04:27:52 10° N
Cosmos 1707 2.6 04:18:55 10° N 04:22:48 87° E 04:25:01 24° S
Cosmos 1726 Rocket 3.6 04:21:10 34° SSW 04:22:56 65° W 04:27:21 10° N
UNK 4.1 04:22:03 32° SSW 04:23:41 45° W 04:28:09 10° NNW
ADEOS 3.5 04:21:59 10° N 04:27:13 75° WNW 04:30:19 25° SSW
ISS -3.9 04:24:19 10° NW 04:27:36 86° NE 04:30:52 10° ESE
SL-16 R/B 3.4 04:26:08 19° W 04:29:10 29° NW 04:34:06 10° N
Cosmos 44 Rocket 3.4 04:25:28 10° NW 04:30:00 47° WSW 04:34:04 13° S
Cosmos 1607 4.1 04:24:16 10° NNW 04:30:45 82° ENE 04:37:13 10° SE
Meteor 1-4 Rocket 3.3 04:30:12 32° WSW 04:30:55 35° WNW 04:34:13 10° N
Cosmos 2341 Rocket 4.5 04:25:28 10° S 04:31:43 61° E 04:38:00 10° NNE
Cosmos 1378 3.0 04:29:23 10° N 04:33:08 87° W 04:35:39 20° S
Cosmos 1302 Rocket 4.2 04:30:38 27° SW 04:33:30 61° WNW 04:38:46 10° NNE
IRS-1D 3.8 04:30:38 10° N 04:35:24 48° WNW 04:38:04 24° SW
H-2A R/B 4.1 04:09:21 10° W 04:36:17 40° SSW 04:41:53 10° SE
USA 161 3.4 04:33:40 10° SE 04:36:24 32° ENE 04:39:05 10° N
Spot 4 Rocket 4.5 04:31:32 10° N 04:36:28 47° WNW 04:39:19 23° SW
Cosmos 1606 Rocket 4.3 04:35:27 27° WSW 04:37:11 38° WNW 04:41:21 10° N
Cosmos 2322 Rocket 3.6 04:35:01 15° W 04:38:22 26° NW 04:43:06 10° N
CZ-2D R/B 3.5 04:37:14 10° NNE 04:41:37 89° ESE 04:44:34 19° SSW
SL-16 R/B 3.2 04:40:35 20° SSW 04:44:12 36° W 04:49:56 10° NNW
Meteor 2-8 Rocket 4.4 04:40:03 10° NNW 04:46:07 67° W 04:52:10 10° S
Cosmos 1844 4.3 04:42:19 10° NNW 04:47:53 60° ENE 04:53:27 10° SE
Cosmos 1503 Rocket 4.0 04:42:59 10° NNW 04:48:19 83° WSW 04:53:39 10° SSE
USA 234 4.3 04:42:56 10° NE 04:48:52 38° NNW 04:54:48 10° W
NOSS 2-3 (D) 4.2 04:51:31 20° WSW 04:54:46 58° NW 05:00:17 10° NNE
Meteor 2-19 Rocket 4.5 04:50:33 14° SSW 04:55:54 71° W 05:02:05 10° N
Cosmos 1340 Rocket 2.7 04:52:24 10° NNW 04:56:23 79° W 05:00:19 10° S
ADEOS II 3.0 04:52:45 10° NNE 04:57:50 48° E 05:02:54 10° S
Resurs 1-4 Rocket 3.1 04:53:28 10° N 04:58:05 32° WNW 05:01:28 16° WSW
Cosmos 1805 4.2 04:57:54 10° SSE 05:01:39 47° E 05:05:26 10° NNE
Meteor 1-22 Rocket 4.3 04:57:24 10° S 05:03:05 88° W 05:09:03 10° N
ARIANE 5 R/B 3.5 04:58:58 10° N 05:03:27 32° WNW 05:06:58 15° WSW
BREEZE-M DEB (TANK) 2.3 05:05:01 19° SW 05:06:59 70° SSE 05:12:25 10° ENE
BREEZE-M DEB (TANK) 4.4 05:05:15 10° WNW 05:09:33 66° NNE 05:26:04 10° ESE
Cosmos 1992 Rocket 4.0 05:07:16 12° SSW 05:12:09 83° WNW 05:17:23 10° NNE
Cosmos 1271 Rocket 3.5 05:11:22 15° SW 05:14:17 38° WNW 05:18:02 10° N
Lacrosse 5 rocket 2.7 05:10:38 10° NW 05:14:27 43° NE 05:18:29 10° ESE
UNKNOWN OBJECT B 3.8 05:11:23 10° N 05:14:46 31° WNW 05:17:32 14° SW
Cosmos 1184 Rocket 4.0 05:12:48 10° NW 05:15:35 25° W 05:17:41 14° SW
Cosmos 2228 4.2 05:13:48 14° SW 05:16:33 26° WNW 05:20:12 10° NNW
CZ-2D R/B 3.6 05:13:47 10° NNW 05:18:01 23° WNW 05:22:06 11° WSW
Cosmos 1758 3.9 05:16:47 10° S 05:20:44 60° E 05:24:43 10° NNE
ATLAS 2AS CENTAUR R/B 3.3 05:14:19 13° SW 05:21:26 63° NW 05:29:33 10° NNE
Cosmos 2263 Rocket 4.0 05:20:51 10° WNW 05:22:28 11° W 05:24:04 10° WSW
Cosmos 389 Rocket 3.0 05:21:17 12° SSW 05:24:23 42° WNW 05:27:50 10° N
CZ-4B R/B 3.0 05:23:13 10° NNE 05:27:03 72° ESE 05:31:03 10° S
Abrixas rocket 4.5 05:25:57 10° S 05:28:13 17° SE 05:30:29 10° E
Cosmos 1953 2.8 05:24:21 10° S 05:28:20 63° E 05:32:20 10° NNE
In-Cosmos 22 4.1 05:24:23 10° NNW 05:29:40 60° W 05:34:51 10° S
Lacrosse 5 4.0 05:27:04 10° SSE 05:30:41 20° ESE 05:34:18 10° ENE
Cosmos 2360 Rocket 3.6 05:26:15 10° WSW 05:30:46 24° NW 05:35:17 10° N
COSMOS 2428 3.3 05:27:38 10° SW 05:33:05 46° WNW 05:38:37 10° NNE
Cosmos 2219 Rocket 2.3 05:28:56 10° SSW 05:34:36 72° WNW 05:40:18 10° NNE
Meteor 2-21 4.5 05:29:25 10° S 05:35:30 79° W 05:41:40 10° N
Cosmos 1980 4.0 05:30:01 10° SSW 05:35:39 72° ESE 05:41:20 10° NNE
DELTA 2 R/B (1) 3.7 05:30:30 10° WSW 05:36:00 63° S 05:41:30 10° E
OAO 3 Rocket 4.1 05:32:44 10° WSW 05:37:04 33° S 05:41:26 10° ESE
Cosmos 2237 Rocket 2.5 05:31:58 10° SSW 05:37:32 69° ESE 05:43:09 10° NNE
Aureole 2 Rocket 3.2 05:33:39 10° SW 05:37:42 49° WNW 05:41:39 10° N
SL-8 Rocket 4.1 05:34:35 10° SSW 05:40:50 64° W 05:47:08 10° N
PSLV R/B 3.9 05:37:15 10° N 05:41:07 64° WNW 05:45:04 10° SSW
ATLAS CENTAUR R/B 2.6 05:36:54 10° NW 05:42:23 51° NNE 05:44:50 10° ESE
CZ-4B R/B 3.6 05:36:56 10° NNE 05:42:37 73° ESE 05:48:13 10° S
Cosmos 1844 Rocket 3.2 05:38:41 10° NW 05:43:51 37° WSW 05:49:00 10° S
